Pontiac, MI

9:03 PM EDT on April 30, 2017 (GMT -0400)
Oakland County International

Weather History for KPTK - December, 2011

Change the Weather History Date:

Saturday, December 24, 2011

  Actual Average Record
Temperature  
Mean Temperature 25 °F -  
Max Temperature 33 °F 29 °F 57 °F (2015)
Min Temperature 17 °F 17 °F 1 °F (2004)
Degree Days  
Heating Degree Days 40    
Moisture  
Dew Point 23 °F    
Average Humidity 84    
Maximum Humidity 100    
Minimum Humidity 65    
Precipitation  
Precipitation 0.00 in - - ()
Snow  
Snow 0.00 in - - ()
Snow Depth 1.00 in    
Sea Level Pressure  
Sea Level Pressure 30.27 in    
Wind  
Wind Speed 4 mph (South)    
Max Wind Speed 13 mph    
Max Gust Speed 22 mph    
Visibility 7 miles    
Events Snow    
Averages and records for this station are not official NWS values.
T = Trace of Precipitation, MM = Missing Value Source: NWS Daily Summary

Daily Weather History Graph

Daily Weather History Graph

Search for Another Location

Airport or City:

Trip Planner

Search our weather history database for the weather conditions in past years. The results will help you decide how hot, cold, wet, or windy it might be!

Date:

Astronomy

Dec. 24, 2011 Rise Set
Actual Time 8:01 AM EST 5:04 PM EST
Civil Twilight 7:29 AM EST 5:36 PM EST
Nautical Twilight 6:53 AM EST 6:12 PM EST
Astronomical Twilight 6:19 AM EST 6:46 PM EST
Moon 7:49 AM EST (12/24) 5:16 PM EST (12/24)
Length of Visible Light 10h 07m
Length of Day
9h 02m
Waning Crescent, 0% of the Moon is Illuminated
Dec 24
Waning Crescent
Dec 24
New
Jan 1
First Quarter
Jan 9
Full
Jan 16
Last Quarter

Hourly Weather History & Observations

Time (EST) Temp. Windchill Dew Point Humidity Pressure Visibility Wind Dir Wind Speed Gust Speed Precip Events Conditions
12:01 AM 24.8 °F 19.1 °F 21.2 °F 86% 30.24 in 2.0 mi SSE 4.6 mph - 0.00 in Snow Light Snow
12:13 AM 24.8 °F 20.5 °F 21.2 °F 86% 30.24 in 4.0 mi South 3.5 mph - 0.00 in Snow Light Snow
12:53 AM 25.0 °F 19.3 °F 21.9 °F 88% 30.28 in 2.0 mi SSE 4.6 mph - 0.00 in Snow Light Snow
1:00 AM 24.8 °F 19.1 °F 21.2 °F 86% 30.24 in 1.8 mi South 4.6 mph - N/A Snow Light Snow
1:09 AM 24.8 °F 19.1 °F 21.2 °F 86% 30.24 in 3.0 mi South 4.6 mph - 0.00 in Snow Light Snow
1:24 AM 24.8 °F 19.1 °F 21.2 °F 86% 30.24 in 2.0 mi SSE 4.6 mph - 0.00 in Snow Light Snow
1:48 AM 24.8 °F - 21.2 °F 86% 30.24 in 4.0 mi Calm Calm - 0.00 in Snow Light Snow
1:53 AM 24.1 °F - 21.9 °F 91% 30.29 in 6.0 mi Calm Calm - 0.00 in Snow Light Snow
2:38 AM 24.8 °F 17.9 °F 21.2 °F 86% 30.25 in 8.0 mi SSE 5.8 mph - 0.00 in   Overcast
2:51 AM 24.8 °F 20.5 °F 21.2 °F 86% 30.26 in 9.0 mi South 3.5 mph - 0.00 in   Overcast
2:53 AM 24.1 °F 19.7 °F 21.9 °F 91% 30.31 in 9.0 mi South 3.5 mph - 0.00 in   Overcast
3:35 AM 24.8 °F - 21.2 °F 86% 30.27 in 8.0 mi Calm Calm - N/A   Scattered Clouds
3:53 AM 24.1 °F 19.7 °F 21.9 °F 91% 30.32 in 8.0 mi SSE 3.5 mph - N/A   Scattered Clouds
4:03 AM 23.0 °F - 21.2 °F 93% 30.28 in 7.0 mi Calm Calm - N/A   Mostly Cloudy
4:23 AM 17.6 °F - 17.6 °F 100% 30.27 in 4.0 mi Calm Calm - N/A   Scattered Clouds
4:36 AM 19.4 °F - 17.6 °F 93% 30.28 in 1.8 mi Calm Calm - N/A   Partly Cloudy
4:45 AM 21.2 °F - 21.2 °F 100% 30.29 in 2.5 mi Calm Calm - N/A   Mostly Cloudy
4:53 AM 21.0 °F - 21.0 °F 100% 30.33 in 4.0 mi Calm Calm - N/A   Mostly Cloudy
5:11 AM 21.2 °F - 19.4 °F 93% 30.29 in 2.0 mi Calm Calm - N/A   Overcast
5:23 AM 21.2 °F - 19.4 °F 93% 30.29 in 4.0 mi Calm Calm - N/A   Overcast
5:53 AM 25.0 °F 20.7 °F 24.1 °F 96% 30.34 in 6.0 mi SE 3.5 mph - N/A   Overcast
6:01 AM 24.8 °F - 24.8 °F 100% 30.29 in 6.0 mi Calm Calm - N/A   Overcast
6:53 AM 26.1 °F 21.9 °F 25.0 °F 96% 30.36 in 7.0 mi SE 3.5 mph - N/A   Overcast
7:53 AM 27.0 °F 18.7 °F 25.0 °F 92% 30.38 in 9.0 mi South 8.1 mph - N/A   Overcast
8:53 AM 27.0 °F 20.5 °F 25.0 °F 92% 30.37 in 7.0 mi SSE 5.8 mph - N/A   Mostly Cloudy
9:53 AM 28.0 °F 22.8 °F 24.1 °F 85% 30.38 in 7.0 mi SSE 4.6 mph - N/A   Mostly Cloudy
10:12 AM 28.4 °F 22.2 °F 24.8 °F 86% 30.34 in 8.0 mi SSE 5.8 mph - N/A   Scattered Clouds
10:53 AM 30.0 °F 24.1 °F 25.0 °F 82% 30.38 in 10.0 mi South 5.8 mph - N/A   Scattered Clouds
11:42 AM 30.2 °F 22.6 °F 26.6 °F 86% 30.33 in 9.0 mi South 8.1 mph - N/A   Mostly Cloudy
11:53 AM 30.9 °F 26.2 °F 26.1 °F 82% 30.36 in 9.0 mi South 4.6 mph - N/A   Mostly Cloudy
12:53 PM 33.1 °F 26.9 °F 26.1 °F 75% 30.33 in 10.0 mi South 6.9 mph - N/A   Overcast
1:53 PM 33.8 °F 27.0 °F 24.8 °F 70% 30.27 in 10.0 mi South 8.1 mph - N/A   Overcast
2:34 PM 33.8 °F 27.0 °F 24.8 °F 70% 30.24 in 10.0 mi South 8.1 mph - N/A   Overcast
2:53 PM 33.8 °F 26.4 °F 23.0 °F 65% 30.24 in 10.0 mi South 9.2 mph 20.7 mph N/A   Overcast
3:29 PM 33.8 °F 27.0 °F 24.8 °F 70% 30.23 in 10.0 mi South 8.1 mph - N/A   Overcast
3:53 PM 33.1 °F 26.1 °F 24.1 °F 70% 30.27 in 10.0 mi South 8.1 mph - N/A   Overcast
4:26 PM 33.8 °F 27.0 °F 24.8 °F 70% 30.22 in 10.0 mi SSW 8.1 mph - N/A   Overcast
4:53 PM 33.1 °F 23.9 °F 23.0 °F 66% 30.28 in 10.0 mi SSW 12.7 mph 21.9 mph N/A   Overcast
5:53 PM 33.1 °F 24.9 °F 23.0 °F 66% 30.27 in 10.0 mi SSW 10.4 mph 16.1 mph N/A   Overcast
6:26 PM 32.0 °F 24.2 °F 23.0 °F 69% 30.22 in 10.0 mi SSW 9.2 mph - N/A   Overcast
6:53 PM 32.0 °F 25.6 °F 23.0 °F 69% 30.25 in 10.0 mi South 6.9 mph - N/A   Mostly Cloudy
7:12 PM 30.2 °F 24.3 °F 23.0 °F 75% 30.20 in 10.0 mi South 5.8 mph - N/A   Scattered Clouds
7:53 PM 30.9 °F 22.8 °F 24.1 °F 76% 30.22 in 10.0 mi South 9.2 mph - N/A   Partly Cloudy
8:53 PM 30.0 °F 22.4 °F 24.1 °F 79% 30.20 in 10.0 mi South 8.1 mph - N/A   Clear
9:53 PM 30.0 °F 22.4 °F 24.1 °F 79% 30.17 in 10.0 mi SSW 8.1 mph - N/A   Clear
10:53 PM 30.9 °F 23.5 °F 24.1 °F 76% 30.15 in 10.0 mi SSW 8.1 mph 16.1 mph N/A   Clear
11:53 PM 30.9 °F 23.5 °F 25.0 °F 79% 30.14 in 10.0 mi SW 8.1 mph - N/A   Clear